Weather History for Flag Island, MN

Change the Weather History Date:

Tuesday, April 30, 2013

  Actual Average Record
Temperature  
Mean Temperature 38 °F -  
Max Temperature 46 °F 49 °F 66 °F (1998)
Min Temperature 28 °F 32 °F 24 °F (1997)
Degree Days  
Heating Degree Days 27    
Moisture  
Dew Point 35 °F    
Average Humidity 84    
Maximum Humidity 93    
Minimum Humidity 71    
Precipitation  
Precipitation 0.69 in - - ()
Sea Level Pressure  
Sea Level Pressure 29.50 in    
Wind  
Wind Speed 12 mph (WNW)    
Max Wind Speed 31 mph    
Max Gust Speed 37 mph    
Visibility 9 miles    
Events Rain , Thunderstorm    
Averages and records for this station are not official NWS values.
T = Trace of Precipitation, MM = Missing Value Source: NWS Daily Summary

Daily Weather History Graph

Daily Weather History Graph

Search for Another Location

Airport:

Trip Planner

Search our weather history database for the weather conditions in past years. The results will help you decide how hot, cold, wet, or windy it might be!

Date:

Astronomy

Apr. 30, 2013 Rise Set
Actual Time 5:59 AM CDT 8:35 PM CDT
Civil Twilight 5:23 AM CDT 9:11 PM CDT
Nautical Twilight 4:37 AM CDT 9:57 PM CDT
Astronomical Twilight 3:44 AM CDT 10:51 PM CDT
Moon 1:05 AM CDT (4/30) 10:23 AM CDT (4/30)
Length of Visible Light 15h 48m
Length of Day
14h 36m
Waning Gibbous, 70% of the Moon is Illuminated
Apr 30
Waning Gibbous
May 2
Last Quarter
May 9
New
May 17
First Quarter
May 24
Full

Hourly Weather History & Observations

Time (CDT) Temp. Windchill Dew Point Humidity Pressure Visibility Wind Dir Wind Speed Gust Speed Precip Events Conditions
12:14 AM 44.6 °F 42.2 °F 39.2 °F 81% 29.56 in 10.0 mi East 4.6 mph - 0.01 in Rain Light Rain
12:34 AM 44.6 °F 41.4 °F 39.2 °F 81% 29.54 in 10.0 mi East 5.8 mph - 0.01 in   Overcast
12:53 AM 42.8 °F 39.3 °F 37.4 °F 81% 29.55 in 10.0 mi North 5.8 mph - 0.01 in Rain Light Rain
1:14 AM 39.2 °F 35.9 °F 35.6 °F 87% 29.55 in 10.0 mi NNE 4.6 mph - N/A Rain Light Rain
1:34 AM 44.6 °F 40.7 °F 39.2 °F 81% 29.55 in 10.0 mi ESE 6.9 mph - 0.01 in Rain Rain
1:53 AM 46.4 °F 42.9 °F 39.2 °F 76% 29.53 in 10.0 mi ESE 6.9 mph - 0.02 in Rain Light Rain
2:14 AM 42.8 °F 38.0 °F 37.4 °F 81% 29.53 in 10.0 mi East 8.1 mph - N/A Rain Light Rain
2:34 AM 44.6 °F 40.2 °F 35.6 °F 71% 29.52 in 10.0 mi East 8.1 mph - N/A   Overcast
2:53 AM 44.6 °F 41.4 °F 35.6 °F 71% 29.51 in 10.0 mi East 5.8 mph - N/A   Overcast
3:14 AM 44.6 °F 43.1 °F 35.6 °F 71% 29.50 in 10.0 mi ESE 3.5 mph - N/A   Overcast
3:34 AM 37.4 °F - 33.8 °F 87% 29.50 in 7.0 mi Calm Calm - 0.01 in Rain Rain
3:53 AM 41.0 °F - 35.6 °F 81% 29.48 in 10.0 mi Calm Calm - 0.06 in Rain Rain
4:13 AM 39.2 °F 35.0 °F 35.6 °F 87% 29.46 in 10.0 mi NNE 5.8 mph - 0.03 in Rain Light Rain
4:34 AM 37.4 °F 31.4 °F 35.6 °F 93% 29.44 in 10.0 mi NNE 8.1 mph - 0.03 in   Light Drizzle
4:53 AM 41.0 °F 35.2 °F 35.6 °F 81% 29.43 in 10.0 mi NE 9.2 mph - 0.03 in   Light Drizzle
5:13 AM 39.2 °F 34.2 °F 33.8 °F 81% 29.44 in 10.0 mi North 6.9 mph - N/A Rain , Thunderstorm Light Thunderstorms and Rain
5:34 AM 39.2 °F 32.5 °F 35.6 °F 87% 29.42 in 10.0 mi NE 10.4 mph - N/A Rain Rain
5:53 AM 42.8 °F 37.5 °F 35.6 °F 76% 29.42 in 10.0 mi East 9.2 mph - 0.03 in Rain Rain
6:13 AM 41.0 °F 33.9 °F 35.6 °F 81% 29.37 in 10.0 mi ENE 12.7 mph - 0.03 in Rain Rain
6:34 AM 41.0 °F 33.5 °F 35.6 °F 81% 29.37 in 10.0 mi NNE 13.8 mph - 0.06 in Rain Rain
6:53 AM 39.2 °F 30.2 °F 35.6 °F 87% 29.33 in 10.0 mi NNE 17.3 mph - 0.07 in Rain Rain
7:13 AM 39.2 °F 32.0 °F 35.6 °F 87% 29.36 in 10.0 mi North 11.5 mph - 0.02 in Rain , Thunderstorm Rain
7:34 AM 37.4 °F 29.8 °F 35.6 °F 93% 29.35 in 4.0 mi NNE 11.5 mph - 0.07 in Rain Rain
7:53 AM 37.4 °F 28.9 °F 35.6 °F 93% 29.37 in 2.0 mi WNW 13.8 mph - 0.18 in Rain Rain
8:13 AM 37.4 °F 28.5 °F 35.6 °F 93% 29.33 in 10.0 mi North 15.0 mph - 0.09 in Rain Rain
8:33 AM 37.4 °F 27.2 °F 35.6 °F 93% 29.30 in 1.5 mi North 19.6 mph - 0.14 in Rain Heavy Rain
8:53 AM 37.4 °F 26.9 °F 35.6 °F 93% 29.27 in 3.0 mi NNE 20.7 mph - 0.20 in Rain Rain
9:14 AM 37.4 °F 27.2 °F 35.6 °F 93% 29.26 in 1.8 mi NNE 19.6 mph - 0.03 in Rain Light Rain
9:33 AM 37.4 °F 28.2 °F 35.6 °F 93% 29.24 in 2.0 mi NNE 16.1 mph - 0.05 in Rain Rain
9:54 AM 39.2 °F 31.6 °F 37.4 °F 93% 29.23 in 2.0 mi NE 12.7 mph - 0.06 in Rain Rain
10:13 AM 39.2 °F 35.0 °F 37.4 °F 93% 29.24 in 2.5 mi North 5.8 mph - 0.01 in Rain Rain
10:33 AM 39.2 °F 31.6 °F 37.4 °F 93% 29.25 in 2.5 mi WNW 12.7 mph - 0.02 in Rain Light Rain
10:53 AM 39.2 °F 32.0 °F 37.4 °F 93% 29.27 in 3.0 mi WNW 11.5 mph - 0.02 in Rain Light Rain
11:13 AM 41.0 °F 32.8 °F 39.2 °F 93% 29.29 in 7.0 mi West 16.1 mph - N/A   Light Drizzle
11:34 AM 42.8 °F 34.8 °F 41.0 °F 93% 29.32 in 4.0 mi West 17.3 mph - N/A Rain Rain
11:53 AM 42.8 °F 33.5 °F 39.2 °F 87% 29.33 in 10.0 mi WNW 23.0 mph 26.5 mph N/A Rain Light Rain
12:13 PM 42.8 °F 34.3 °F 39.2 °F 87% 29.35 in 10.0 mi WNW 19.6 mph 25.3 mph N/A   Light Drizzle
12:34 PM 42.8 °F 34.8 °F 39.2 °F 87% 29.37 in 10.0 mi WNW 17.3 mph 28.8 mph N/A   Overcast
12:53 PM 42.8 °F 34.3 °F 39.2 °F 87% 29.34 in 10.0 mi NW 19.6 mph 26.5 mph N/A   Light Drizzle
1:13 PM 44.6 °F 37.4 °F 41.0 °F 87% 29.39 in 10.0 mi WNW 16.1 mph 21.9 mph N/A   Scattered Clouds
1:34 PM 44.6 °F 38.1 °F 39.2 °F 81% 29.41 in 10.0 mi WNW 13.8 mph - N/A   Mostly Cloudy
1:53 PM 42.8 °F 37.0 °F 37.4 °F 81% 29.42 in 10.0 mi WNW 10.4 mph - N/A   Mostly Cloudy
2:13 PM 44.6 °F 40.7 °F 39.2 °F 81% 29.43 in 10.0 mi NW 6.9 mph - N/A   Overcast
2:34 PM 42.8 °F - 39.2 °F 87% 29.43 in 10.0 mi Calm Calm - 0.01 in Rain Light Rain
2:53 PM 41.0 °F 35.8 °F 39.2 °F 93% 29.44 in 10.0 mi SSE 8.1 mph - 0.01 in   Light Drizzle
3:13 PM 44.6 °F 34.7 °F 41.0 °F 87% 29.46 in 10.0 mi WSW 29.9 mph 35.7 mph N/A   Overcast
3:34 PM 42.8 °F 32.1 °F 39.2 °F 87% 29.48 in 10.0 mi SW 31.1 mph - N/A   Overcast
3:53 PM 42.8 °F 33.5 °F 37.4 °F 81% 29.51 in 10.0 mi WSW 23.0 mph 31.1 mph N/A   Overcast
4:13 PM 42.8 °F 33.1 °F 37.4 °F 81% 29.52 in 10.0 mi WSW 25.3 mph 33.4 mph N/A   Overcast
4:33 PM 42.8 °F 33.3 °F 37.4 °F 81% 29.53 in 10.0 mi WSW 24.2 mph 29.9 mph N/A   Overcast
4:53 PM 42.8 °F 33.5 °F 35.6 °F 76% 29.55 in 10.0 mi WSW 23.0 mph 35.7 mph N/A   Overcast
5:14 PM 42.8 °F 34.0 °F 35.6 °F 76% 29.57 in 10.0 mi WSW 20.7 mph 28.8 mph N/A   Overcast
5:33 PM 42.8 °F 32.5 °F 35.6 °F 76% 29.58 in 10.0 mi WSW 28.8 mph 36.8 mph N/A   Overcast
5:53 PM 42.8 °F 34.0 °F 35.6 °F 76% 29.60 in 10.0 mi WSW 20.7 mph 31.1 mph N/A   Overcast
6:14 PM 42.8 °F 34.3 °F 35.6 °F 76% 29.62 in 10.0 mi WSW 19.6 mph 29.9 mph N/A   Overcast
6:34 PM 42.8 °F 33.1 °F 35.6 °F 76% 29.62 in 10.0 mi WSW 25.3 mph 33.4 mph N/A   Overcast
6:53 PM 42.8 °F 33.8 °F 35.6 °F 76% 29.63 in 10.0 mi WSW 21.9 mph 27.6 mph N/A   Overcast
7:14 PM 41.0 °F 31.1 °F 33.8 °F 76% 29.65 in 10.0 mi West 23.0 mph 35.7 mph N/A   Scattered Clouds
7:34 PM 39.2 °F 28.5 °F 33.8 °F 81% 29.68 in 10.0 mi WSW 24.2 mph 27.6 mph N/A   Mostly Cloudy
7:53 PM 39.2 °F 28.3 °F 32.0 °F 75% 29.69 in 10.0 mi WSW 25.3 mph 29.9 mph N/A   Overcast
8:14 PM 37.4 °F 26.9 °F 30.2 °F 75% 29.72 in 10.0 mi West 20.7 mph 27.6 mph N/A   Mostly Cloudy
8:34 PM 37.4 °F 26.6 °F 30.2 °F 75% 29.74 in 10.0 mi WSW 21.9 mph 28.8 mph N/A   Overcast
8:53 PM 35.6 °F 24.5 °F 28.4 °F 75% 29.77 in 10.0 mi West 20.7 mph 26.5 mph N/A   Overcast
9:13 PM 33.8 °F 22.5 °F 28.4 °F 81% 29.79 in 10.0 mi West 19.6 mph 26.5 mph N/A   Overcast
9:34 PM 33.8 °F 23.5 °F 28.4 °F 81% 29.81 in 10.0 mi West 16.1 mph 25.3 mph N/A   Overcast
9:53 PM 33.8 °F 23.2 °F 28.4 °F 81% 29.82 in 10.0 mi West 17.3 mph 23.0 mph N/A   Overcast
10:34 PM 32.0 °F 20.1 °F 28.4 °F 87% 29.83 in 10.0 mi WSW 19.6 mph 24.2 mph N/A   Overcast
10:53 PM 30.2 °F 19.3 °F 26.6 °F 86% 29.85 in 7.0 mi West 15.0 mph 24.2 mph N/A   Overcast
11:14 PM 30.2 °F 18.9 °F 26.6 °F 86% 29.86 in 10.0 mi West 16.1 mph 21.9 mph N/A   Overcast
11:34 PM 30.2 °F 17.8 °F 24.8 °F 80% 29.87 in 10.0 mi West 19.6 mph 26.5 mph N/A   Overcast
11:53 PM 28.4 °F 16.6 °F 26.6 °F 93% 29.88 in 10.0 mi West 16.1 mph 23.0 mph N/A   Overcast